Weather in Suystamo

Russia / Republic of Karelia     61°54′52″N   31°09′08″E
temp.,
°C
wind,
m/s
gust,
m/s
humid.,
%
clouds,
%
prec.,
mm/h
press.,
hPa
HPBL,
m
4 march, thu
thu400:00−5nw5129120 0.0 999499
03:00−5nnw4109253 0.1 1001474
06:00−7nw389593 0.1 1000297
09:00−7nnw389490 0.1 1002295
12:00−5nw378791 0.0 1002478
15:00−4nw488295 0.0 1002796
18:00−6nw399097 0.0 1002420
21:00−7nnw4109287 0.1 1003437
5 march, fri
fri500:00−9nw399463 0.0 1004318
03:00−9nnw389380 0.1 1006365
06:00−12n229588 0.0 100735
09:00−11nnw248952 0.0 100989
12:00−7nnw368584 0.0 1010580
15:00−6nnw357388 0.1 10121076
18:00−8nw2787100 0.1 1013216
21:00−11nnw249453 0.1 101591
6 march, sat
sat600:00−12nw239516 0.0 101632
03:00−13wnw22967 0.0 101622
06:00−14wsw229718 0.0 101523
09:00−13ssw269734 0.0 1012169
12:00−7ssw5118586 0.0 1008464
15:00−5ssw8149393 0.7 10011049
18:00−4ssw71395100 2.9 994961
21:00−2sw61396100 6.3 9881037
7 march, sun
sun700:00−6wnw61373100 2.3 988777
03:00−14wnw368083 2.3 989109
06:00−13sw279624 0.1 988239
09:00−12wsw269650 0.3 988286
12:00−8ene128399 0.1 988600
15:00−9ne458499 0.3 991752
18:00−10n398262 0.0 995310
21:00−10n5128864 0.0 998737
8 march, mon
mon800:00−14n51386100 0.0 1000696
03:00−15n61486100 0.1 1004668
06:00−16n61387100 0.0 1006592
09:00−18n6138779 0.0 1010488
12:00−15n5118639 0.0 1012472
15:00−13n5108335 0.0 1015562
18:00−14n4108541 0.0 1017504
21:00−17nne3108921 0.0 1020299